Location: Härggis
(46.9540°N, 8.4897°E)
Time: 21:08:59
(UTC+00:00)

Cosmos 2084 Rocket - Pass Details

Date: 27 May 2022
Orbit: 497 x 678 km, 62.8° (Epoch: 03 July)

Event Time Altitude Azimuth Distance (km) Brightness Sun altitude
Exits shadow 00:19:59 33° 116° (ESE) 863 4.2 -20.6°
Drops below altitude 10° 00:23:15 10° 57° (ENE) 1,704 6.5 -20.4°
Sets 00:25:32 0° 48° (NE) 2,592 7.7 -20.3°
